Weather History for St. George, UT

Change the Weather History Date:

Monday, March 11, 2013

  Actual Average Record
Temperature  
Mean Temperature 52 °F -  
Max Temperature 69 °F 67 °F 84 °F (1989)
Min Temperature 35 °F 40 °F 22 °F (1962)
Degree Days  
Heating Degree Days 13    
Growing Degree Days 2 (Base 50)    
Moisture  
Dew Point 26 °F    
Average Humidity 41    
Maximum Humidity 70    
Minimum Humidity 20    
Precipitation  
Precipitation 0.00 in - - ()
Sea Level Pressure  
Sea Level Pressure 30.23 in    
Wind  
Wind Speed 3 mph (SSE)    
Max Wind Speed 8 mph    
Max Gust Speed -    
Visibility 10 miles    
Events      
Averages and records for this station are not official NWS values.
T = Trace of Precipitation, MM = Missing Value Source: NWS Daily Summary

Daily Weather History Graph

Daily Weather History Graph

Search for Another Location

Airport:

Trip Planner

Search our weather history database for the weather conditions in past years. The results will help you decide how hot, cold, wet, or windy it might be!

Date:

Astronomy

Mar. 11, 2013 Rise Set
Actual Time 7:50 AM MDT 7:38 PM MDT
Civil Twilight 7:24 AM MDT 8:04 PM MDT
Nautical Twilight 6:54 AM MDT 8:34 PM MDT
Astronomical Twilight 6:24 AM MDT 9:04 PM MDT
Moon 7:27 AM MDT (3/11) 7:53 PM MDT (3/11)
Length of Visible Light 12h 39m
Length of Day
11h 47m
Waning Crescent, 0% of the Moon is Illuminated
Mar 11
Waning Crescent
Mar 11
New
Mar 19
First Quarter
Mar 27
Full
Apr 2
Last Quarter

Hourly Weather History & Observations

Time (MDT) Temp. Windchill Dew Point Humidity Pressure Visibility Wind Dir Wind Speed Gust Speed Precip Events Conditions
12:15 AM 44.6 °F 40.7 °F 26.6 °F 49% 30.29 in 10.0 mi SSE 6.9 mph - N/A   Clear
12:35 AM 44.6 °F 43.1 °F 24.8 °F 46% 30.29 in 10.0 mi SE 3.5 mph - N/A   Clear
12:55 AM 44.6 °F 42.2 °F 26.6 °F 49% 30.29 in 10.0 mi SSE 4.6 mph - N/A   Clear
1:15 AM 44.6 °F 42.2 °F 24.8 °F 46% 30.29 in 10.0 mi SSE 4.6 mph - N/A   Clear
1:35 AM 44.6 °F - 24.8 °F 46% 30.29 in 10.0 mi Calm Calm - N/A   Clear
1:55 AM 44.6 °F 43.1 °F 24.8 °F 46% 30.28 in 10.0 mi SE 3.5 mph - N/A   Clear
2:15 AM 42.8 °F 41.1 °F 24.8 °F 49% 30.28 in 10.0 mi SSE 3.5 mph - N/A   Clear
2:35 AM 42.8 °F 38.0 °F 24.8 °F 49% 30.27 in 10.0 mi SE 8.1 mph - N/A   Clear
2:55 AM 41.0 °F 37.1 °F 24.8 °F 53% 30.28 in 10.0 mi SSE 5.8 mph - N/A   Clear
3:15 AM 42.8 °F - 26.6 °F 53% 30.28 in 10.0 mi Calm Calm - N/A   Clear
3:35 AM 41.0 °F 38.0 °F 24.8 °F 53% 30.27 in 10.0 mi East 4.6 mph - N/A   Clear
3:55 AM 41.0 °F 39.0 °F 24.8 °F 53% 30.27 in 10.0 mi SE 3.5 mph - N/A   Clear
4:15 AM 42.8 °F 40.1 °F 24.8 °F 49% 30.26 in 10.0 mi South 4.6 mph - N/A   Clear
4:35 AM 37.4 °F 32.8 °F 24.8 °F 60% 30.25 in 10.0 mi SSE 5.8 mph - N/A   Clear
4:55 AM 37.4 °F 33.8 °F 24.8 °F 60% 30.26 in 10.0 mi SE 4.6 mph - N/A   Clear
5:15 AM 39.2 °F 37.0 °F 24.8 °F 56% 30.25 in 10.0 mi SE 3.5 mph - N/A   Clear
5:35 AM 39.2 °F 34.2 °F 24.8 °F 56% 30.26 in 10.0 mi ESE 6.9 mph - N/A   Clear
5:55 AM 37.4 °F 32.1 °F 24.8 °F 60% 30.26 in 10.0 mi SSE 6.9 mph - N/A   Clear
6:15 AM 37.4 °F 34.9 °F 24.8 °F 60% 30.26 in 10.0 mi South 3.5 mph - N/A   Clear
6:35 AM 37.4 °F 34.9 °F 24.8 °F 60% 30.27 in 10.0 mi SSE 3.5 mph - N/A   Clear
6:55 AM 39.2 °F - 24.8 °F 56% 30.27 in 10.0 mi Calm Calm - N/A   Clear
7:15 AM 39.2 °F 37.0 °F 24.8 °F 56% 30.27 in 10.0 mi East 3.5 mph - N/A   Clear
7:35 AM 35.6 °F - 26.6 °F 70% 30.28 in 10.0 mi Calm Calm - N/A   Clear
7:55 AM 37.4 °F 32.8 °F 24.8 °F 60% 30.28 in 10.0 mi ESE 5.8 mph - N/A   Clear
8:15 AM 35.6 °F 32.8 °F 24.8 °F 65% 30.29 in 10.0 mi South 3.5 mph - N/A   Clear
8:35 AM 37.4 °F - 24.8 °F 60% 30.30 in 10.0 mi Calm Calm - N/A   Clear
8:55 AM 37.4 °F - 24.8 °F 60% 30.31 in 10.0 mi Calm Calm - N/A   Clear
9:15 AM 39.2 °F 35.9 °F 26.6 °F 61% 30.31 in 10.0 mi South 4.6 mph - N/A   Clear
9:35 AM 41.0 °F 38.0 °F 26.6 °F 57% 30.31 in 10.0 mi South 4.6 mph - N/A   Clear
9:55 AM 42.8 °F - 24.8 °F 49% 30.32 in 10.0 mi Calm Calm - N/A   Clear
10:15 AM 44.6 °F - 24.8 °F 46% 30.32 in 10.0 mi Calm Calm - N/A   Clear
10:35 AM 44.6 °F - 26.6 °F 49% 30.32 in 10.0 mi Calm Calm - N/A   Clear
10:55 AM 46.4 °F - 24.8 °F 43% 30.31 in 10.0 mi Calm Calm - N/A   Clear
11:15 AM 46.4 °F - 26.6 °F 46% 30.31 in 10.0 mi Calm Calm - N/A   Clear
11:35 AM 50.0 °F - 28.4 °F 43% 30.30 in 10.0 mi Calm Calm - N/A   Clear
11:55 AM 51.8 °F - 26.6 °F 38% 30.29 in 10.0 mi Calm Calm - N/A   Clear
12:15 PM 53.6 °F - 26.6 °F 35% 30.28 in 10.0 mi Calm Calm - N/A   Clear
12:35 PM 51.8 °F - 26.6 °F 38% 30.27 in 10.0 mi Calm Calm - N/A   Clear
12:55 PM 53.6 °F - 24.8 °F 33% 30.27 in 10.0 mi WNW 3.5 mph - N/A   Clear
1:15 PM 53.6 °F - 26.6 °F 35% 30.26 in 10.0 mi Calm Calm - N/A   Clear
1:35 PM 57.2 °F - 26.6 °F 31% 30.25 in 10.0 mi Calm Calm - N/A   Clear
1:55 PM 60.8 °F - 26.6 °F 27% 30.24 in 10.0 mi East 3.5 mph - N/A   Clear
2:15 PM 60.8 °F - 23.0 °F 23% 30.22 in 10.0 mi Calm Calm - N/A   Clear
2:35 PM 59.0 °F - 23.0 °F 25% 30.21 in 10.0 mi Calm Calm - N/A   Clear
2:55 PM 60.8 °F - 24.8 °F 25% 30.20 in 10.0 mi Calm Calm - N/A   Clear
3:15 PM 60.8 °F - 24.8 °F 25% 30.19 in 10.0 mi Calm Calm - N/A   Clear
3:35 PM 64.4 °F - 26.6 °F 24% 30.18 in 10.0 mi South 3.5 mph - N/A   Clear
3:55 PM 62.6 °F - 24.8 °F 24% 30.17 in 10.0 mi Calm Calm - N/A   Clear
4:15 PM 64.4 °F - 26.6 °F 24% 30.16 in 10.0 mi South 4.6 mph - N/A   Clear
4:35 PM 64.4 °F - 26.6 °F 24% 30.16 in 10.0 mi Calm Calm - N/A   Clear
5:15 PM 69.8 °F - 26.6 °F 20% 30.14 in 10.0 mi NNE 4.6 mph - N/A   Clear
5:35 PM 69.8 °F - 26.6 °F 20% 30.14 in 10.0 mi ENE 3.5 mph - N/A   Clear
5:55 PM 69.8 °F - 26.6 °F 20% 30.13 in 10.0 mi Calm Calm - N/A   Clear
6:15 PM 69.8 °F - 26.6 °F 20% 30.12 in 10.0 mi Calm Calm - N/A   Clear
6:35 PM 69.8 °F - 26.6 °F 20% 30.12 in 10.0 mi ENE 3.5 mph - N/A   Clear
6:55 PM 68.0 °F - 26.6 °F 21% 30.12 in 10.0 mi NE 3.5 mph - N/A   Clear
7:35 PM 64.4 °F - 30.2 °F 28% 30.13 in 10.0 mi West 3.5 mph - N/A   Clear
7:55 PM 62.6 °F - 28.4 °F 27% 30.13 in 10.0 mi SW 6.9 mph - N/A   Clear
8:15 PM 60.8 °F - 28.4 °F 29% 30.13 in 10.0 mi WSW 5.8 mph - N/A   Clear
8:35 PM 60.8 °F - 28.4 °F 29% 30.13 in 10.0 mi SSW 4.6 mph - N/A   Clear
8:55 PM 57.2 °F - 30.2 °F 36% 30.15 in 10.0 mi SSE 3.5 mph - N/A   Clear
9:15 PM 57.2 °F - 28.4 °F 33% 30.15 in 10.0 mi SSE 5.8 mph - N/A   Clear
9:35 PM 57.2 °F - 28.4 °F 33% 30.15 in 10.0 mi SSW 4.6 mph - N/A   Clear
9:55 PM 55.4 °F - 28.4 °F 36% 30.16 in 10.0 mi SSW 3.5 mph - N/A   Clear
10:15 PM 55.4 °F - 26.6 °F 33% 30.16 in 10.0 mi South 3.5 mph - N/A   Clear
10:35 PM 55.4 °F - 28.4 °F 36% 30.17 in 10.0 mi South 3.5 mph - N/A   Clear
10:55 PM 55.4 °F - 28.4 °F 36% 30.17 in 10.0 mi South 4.6 mph - N/A   Clear
11:35 PM 53.6 °F - 30.2 °F 41% 30.18 in 10.0 mi Calm Calm - N/A   Clear
11:55 PM 55.4 °F - 28.4 °F 36% 30.18 in 10.0 mi Calm Calm - N/A   Clear